Time,TemperatureF,DewpointF,PressureIn,WindDirection,WindDirectionDegrees,WindSpeedMPH,WindSpeedGustMPH,Humidity,HourlyPrecipIn,Conditions,Clouds,dailyrainin,SoftwareType,DateUTC
2013-01-30 00:02:00,74.0,65.0,29.67,SW,219,6.0,24.0,74,0.00,,,0.00,,2013-01-30 06:02:00,
2013-01-30 00:11:00,74.0,65.0,29.67,SW,219,6.0,24.0,74,0.00,,,0.00,,2013-01-30 06:11:00,
2013-01-30 00:21:00,74.0,66.0,29.67,SW,232,2.0,14.0,75,0.00,,,0.00,,2013-01-30 06:21:00,
2013-01-30 00:32:00,74.0,66.0,29.65,South,178,5.0,16.0,75,0.00,,,0.00,,2013-01-30 06:32:00,
2013-01-30 00:41:00,74.0,66.0,29.65,South,178,5.0,16.0,75,0.00,,,0.00,,2013-01-30 06:41:00,
2013-01-30 00:52:00,73.0,65.0,29.66,WSW,243,5.0,16.0,76,0.00,,,0.00,,2013-01-30 06:52:00,
2013-01-30 01:02:00,73.0,65.0,29.65,South,190,6.0,18.0,76,0.00,,,0.00,,2013-01-30 07:02:00,
2013-01-30 01:11:00,73.0,65.0,29.65,South,190,6.0,18.0,76,0.00,,,0.00,,2013-01-30 07:11:00,
2013-01-30 01:21:00,74.0,66.0,29.66,SSW,205,5.0,18.0,76,0.00,,,0.00,,2013-01-30 07:21:00,
2013-01-30 01:31:00,74.0,66.0,29.66,SW,229,5.0,18.0,76,0.00,,,0.00,,2013-01-30 07:31:00,
2013-01-30 01:41:00,74.0,66.0,29.66,SW,229,5.0,18.0,76,0.00,,,0.00,,2013-01-30 07:41:00,
2013-01-30 01:52:00,74.0,66.0,29.65,South,176,6.0,18.0,75,0.00,,,0.00,,2013-01-30 07:52:00,
2013-01-30 02:01:00,74.0,66.0,29.65,SSW,202,5.0,20.0,75,0.00,,,0.00,,2013-01-30 08:01:00,
2013-01-30 02:11:00,74.0,66.0,29.65,SSW,202,5.0,20.0,75,0.00,,,0.00,,2013-01-30 08:11:00,
2013-01-30 02:21:00,74.0,66.0,29.64,SW,224,3.0,20.0,75,0.00,,,0.00,,2013-01-30 08:21:00,
2013-01-30 02:32:00,74.0,66.0,29.63,SSW,193,7.0,20.0,75,0.00,,,0.00,,2013-01-30 08:32:00,
2013-01-30 02:42:00,74.0,66.0,29.63,SSW,193,7.0,20.0,75,0.00,,,0.00,,2013-01-30 08:42:00,
2013-01-30 02:52:00,74.0,66.0,29.62,South,191,6.0,20.0,76,0.00,,,0.00,,2013-01-30 08:52:00,
2013-01-30 03:01:00,74.0,66.0,29.62,WSW,251,6.0,20.0,76,0.00,,,0.00,,2013-01-30 09:01:00,
2013-01-30 03:11:00,74.0,66.0,29.62,WSW,251,6.0,20.0,76,0.00,,,0.00,,2013-01-30 09:11:00,
2013-01-30 03:21:00,74.0,66.0,29.61,South,170,5.0,20.0,76,0.00,,,0.00,,2013-01-30 09:21:00,
2013-01-30 03:32:00,74.0,66.0,29.61,South,191,7.0,20.0,76,0.00,,,0.00,,2013-01-30 09:32:00,
2013-01-30 03:41:00,74.0,66.0,29.61,South,191,7.0,20.0,76,0.00,,,0.00,,2013-01-30 09:41:00,
2013-01-30 03:52:00,72.0,62.0,29.65,NW,308,6.0,20.0,70,0.00,,,0.00,,2013-01-30 09:52:00,
2013-01-30 04:01:00,66.0,56.0,29.66,SSW,211,6.0,20.0,70,0.00,,,0.00,,2013-01-30 10:01:00,
2013-01-30 04:11:00,66.0,56.0,29.66,SSW,211,6.0,20.0,70,0.00,,,0.00,,2013-01-30 10:11:00,
2013-01-30 04:21:00,58.0,53.0,29.67,NW,318,5.0,22.0,83,0.22,,,0.22,,2013-01-30 10:21:00,
2013-01-30 04:31:00,56.0,52.0,29.66,NNW,330,3.0,23.0,87,0.36,,,0.36,,2013-01-30 10:31:00,
2013-01-30 04:41:00,56.0,52.0,29.66,NNW,330,3.0,23.0,87,0.36,,,0.36,,2013-01-30 10:41:00,
2013-01-30 04:52:00,56.0,53.0,29.66,North,349,2.0,23.0,90,0.57,,,0.57,,2013-01-30 10:52:00,
2013-01-30 05:02:00,55.0,52.0,29.67,NNW,345,5.0,23.0,91,0.63,,,0.64,,2013-01-30 11:02:00,
2013-01-30 05:11:00,55.0,52.0,29.67,NNW,345,5.0,23.0,91,0.63,,,0.64,,2013-01-30 11:11:00,
2013-01-30 05:22:00,55.0,52.0,29.67,NW,313,2.0,23.0,91,0.57,,,0.79,,2013-01-30 11:22:00,
2013-01-30 05:32:00,54.0,52.0,29.66,North,350,3.0,23.0,92,0.44,,,0.85,,2013-01-30 11:32:00,
2013-01-30 05:42:00,54.0,52.0,29.66,North,350,3.0,23.0,92,0.44,,,0.85,,2013-01-30 11:42:00,
2013-01-30 05:52:00,54.0,52.0,29.67,North,3,0.0,23.0,93,0.35,,,0.92,,2013-01-30 11:52:00,
2013-01-30 06:02:00,54.0,52.0,29.68,NW,305,1.0,23.0,93,0.34,,,0.96,,2013-01-30 12:02:00,
2013-01-30 06:12:00,54.0,52.0,29.68,NW,305,1.0,23.0,93,0.34,,,0.96,,2013-01-30 12:12:00,
2013-01-30 06:22:00,54.0,52.0,29.66,WNW,282,1.0,23.0,93,0.25,,,1.04,,2013-01-30 12:22:00,
2013-01-30 06:32:00,54.0,52.0,29.65,West,263,0.0,23.0,94,0.27,,,1.10,,2013-01-30 12:32:00,
2013-01-30 06:42:00,54.0,52.0,29.65,West,263,0.0,23.0,94,0.27,,,1.10,,2013-01-30 12:42:00,
2013-01-30 07:02:00,53.0,51.0,29.65,WSW,251,0.0,23.0,94,0.16,,,1.13,,2013-01-30 13:02:00,
2013-01-30 07:12:00,53.0,51.0,29.65,WSW,251,0.0,23.0,94,0.16,,,1.13,,2013-01-30 13:12:00,
2013-01-30 07:23:00,53.0,52.0,29.66,WSW,250,0.0,23.0,95,0.09,,,1.13,,2013-01-30 13:23:00,
2013-01-30 07:32:00,53.0,52.0,29.67,WSW,251,0.0,23.0,95,0.02,,,1.13,,2013-01-30 13:32:00,
2013-01-30 07:42:00,53.0,52.0,29.67,WSW,251,0.0,23.0,95,0.02,,,1.13,,2013-01-30 13:42:00,
2013-01-30 07:53:00,53.0,52.0,29.67,WSW,251,0.0,23.0,95,0.01,,,1.13,,2013-01-30 13:53:00,
2013-01-30 08:02:00,53.0,52.0,29.67,WSW,250,0.0,23.0,95,0.00,,,1.13,,2013-01-30 14:02:00,
2013-01-30 08:12:00,53.0,52.0,29.67,WSW,250,0.0,23.0,95,0.00,,,1.13,,2013-01-30 14:12:00,
2013-01-30 08:22:00,54.0,53.0,29.67,WSW,251,0.0,23.0,95,0.00,,,1.13,,2013-01-30 14:22:00,
2013-01-30 08:32:00,54.0,53.0,29.66,WSW,251,0.0,23.0,96,0.00,,,1.13,,2013-01-30 14:32:00,
2013-01-30 08:42:00,54.0,53.0,29.66,WSW,251,0.0,23.0,96,0.00,,,1.13,,2013-01-30 14:42:00,
2013-01-30 08:53:00,54.0,53.0,29.68,WSW,250,0.0,23.0,96,0.00,,,1.13,,2013-01-30 14:53:00,
2013-01-30 09:03:00,55.0,54.0,29.68,WSW,249,0.0,23.0,96,0.00,,,1.13,,2013-01-30 15:03:00,
2013-01-30 09:12:00,55.0,54.0,29.68,WSW,249,0.0,23.0,96,0.00,,,1.13,,2013-01-30 15:12:00,
2013-01-30 09:23:00,55.0,54.0,29.67,West,263,1.0,23.0,96,0.00,,,1.13,,2013-01-30 15:23:00,
2013-01-30 09:33:00,55.0,54.0,29.69,WSW,249,1.0,23.0,96,0.00,,,1.13,,2013-01-30 15:33:00,
2013-01-30 09:43:00,55.0,54.0,29.69,WSW,249,1.0,23.0,96,0.00,,,1.13,,2013-01-30 15:43:00,
2013-01-30 09:53:00,55.0,54.0,29.68,West,262,1.0,23.0,96,0.00,,,1.13,,2013-01-30 15:53:00,
2013-01-30 10:03:00,55.0,54.0,29.70,SW,231,1.0,23.0,95,0.00,,,1.13,,2013-01-30 16:03:00,
2013-01-30 10:12:00,55.0,54.0,29.70,SW,231,1.0,23.0,95,0.00,,,1.13,,2013-01-30 16:12:00,
2013-01-30 10:23:00,55.0,52.0,29.69,SW,236,3.0,23.0,91,0.00,,,1.13,,2013-01-30 16:23:00,
2013-01-30 10:32:00,56.0,53.0,29.69,WSW,245,1.0,23.0,90,0.00,,,1.13,,2013-01-30 16:32:00,
2013-01-30 10:42:00,56.0,53.0,29.69,WSW,245,1.0,23.0,90,0.00,,,1.13,,2013-01-30 16:42:00,
2013-01-30 10:52:00,56.0,53.0,29.69,WSW,245,1.0,23.0,90,0.00,,,1.13,,2013-01-30 16:52:00,
2013-01-30 11:02:00,57.0,52.0,29.70,WSW,247,3.0,23.0,83,0.00,,,1.13,,2013-01-30 17:02:00,
2013-01-30 11:12:00,57.0,52.0,29.70,WSW,247,3.0,23.0,83,0.00,,,1.13,,2013-01-30 17:12:00,
2013-01-30 11:22:00,56.0,51.0,29.71,WSW,247,2.0,23.0,82,0.00,,,1.13,,2013-01-30 17:22:00,
2013-01-30 11:32:00,57.0,51.0,29.70,WNW,285,1.0,23.0,81,0.00,,,1.13,,2013-01-30 17:32:00,
2013-01-30 11:42:00,57.0,51.0,29.70,WNW,285,1.0,23.0,81,0.00,,,1.13,,2013-01-30 17:42:00,
2013-01-30 11:53:00,57.0,50.0,29.70,WSW,257,5.0,23.0,77,0.00,,,1.13,,2013-01-30 17:53:00,
2013-01-30 12:02:00,57.0,50.0,29.70,WSW,246,2.0,23.0,76,0.00,,,1.13,,2013-01-30 18:02:00,
2013-01-30 12:12:00,57.0,50.0,29.70,WSW,246,2.0,23.0,76,0.00,,,1.13,,2013-01-30 18:12:00,
2013-01-30 12:22:00,57.0,48.0,29.71,NW,315,2.0,23.0,71,0.00,,,1.13,,2013-01-30 18:22:00,
2013-01-30 12:33:00,57.0,48.0,29.70,SW,233,3.0,23.0,71,0.00,,,1.13,,2013-01-30 18:33:00,
2013-01-30 12:42:00,57.0,48.0,29.70,SW,233,3.0,23.0,71,0.00,,,1.13,,2013-01-30 18:42:00,
2013-01-30 12:53:00,57.0,48.0,29.70,WNW,286,5.0,23.0,71,0.00,,,1.13,,2013-01-30 18:53:00,
2013-01-30 13:02:00,57.0,47.0,29.71,NNW,338,3.0,23.0,68,0.00,,,1.13,,2013-01-30 19:02:00,
2013-01-30 13:12:00,57.0,47.0,29.71,NNW,338,3.0,23.0,68,0.00,,,1.13,,2013-01-30 19:12:00,
2013-01-30 13:22:00,57.0,45.0,29.70,WSW,238,2.0,23.0,63,0.00,,,1.13,,2013-01-30 19:22:00,
2013-01-30 13:32:00,57.0,45.0,29.71,SW,225,3.0,23.0,63,0.00,,,1.13,,2013-01-30 19:32:00,
2013-01-30 13:43:00,57.0,45.0,29.71,SW,225,3.0,23.0,63,0.00,,,1.13,,2013-01-30 19:43:00,
2013-01-30 13:53:00,57.0,43.0,29.72,West,281,6.0,23.0,59,0.00,,,1.13,,2013-01-30 19:53:00,
2013-01-30 14:03:00,56.0,42.0,29.72,WSW,253,3.0,23.0,59,0.00,,,1.13,,2013-01-30 20:03:00,
2013-01-30 14:12:00,56.0,42.0,29.72,WSW,253,3.0,23.0,59,0.00,,,1.13,,2013-01-30 20:12:00,
2013-01-30 14:22:00,56.0,41.0,29.74,South,178,6.0,23.0,57,0.00,,,1.13,,2013-01-30 20:22:00,
2013-01-30 14:33:00,56.0,42.0,29.74,WNW,289,7.0,23.0,59,0.00,,,1.13,,2013-01-30 20:33:00,
2013-01-30 14:42:00,56.0,42.0,29.74,WNW,289,7.0,23.0,59,0.00,,,1.13,,2013-01-30 20:42:00,
2013-01-30 14:53:00,55.0,42.0,29.75,West,270,5.0,23.0,61,0.00,,,1.13,,2013-01-30 20:53:00,
2013-01-30 15:03:00,55.0,40.0,29.77,WNW,285,7.0,23.0,57,0.00,,,1.13,,2013-01-30 21:03:00,
2013-01-30 15:12:00,55.0,40.0,29.77,WNW,285,7.0,23.0,57,0.00,,,1.13,,2013-01-30 21:12:00,
2013-01-30 15:22:00,53.0,39.0,29.79,North,353,6.0,27.0,59,0.00,,,1.13,,2013-01-30 21:22:00,
2013-01-30 15:32:00,53.0,38.0,29.80,West,262,6.0,27.0,57,0.00,,,1.13,,2013-01-30 21:32:00,
2013-01-30 15:42:00,53.0,38.0,29.80,West,262,6.0,27.0,57,0.00,,,1.13,,2013-01-30 21:42:00,
2013-01-30 15:52:00,52.0,38.0,29.81,WNW,287,2.0,27.0,59,0.00,,,1.13,,2013-01-30 21:52:00,
2013-01-30 16:02:00,52.0,38.0,29.82,West,266,10.0,27.0,58,0.00,,,1.13,,2013-01-30 22:02:00,
2013-01-30 16:12:00,52.0,38.0,29.82,West,266,10.0,27.0,58,0.00,,,1.13,,2013-01-30 22:12:00,
2013-01-30 16:22:00,50.0,37.0,29.84,SW,219,7.0,27.0,60,0.00,,,1.13,,2013-01-30 22:22:00,
2013-01-30 16:32:00,50.0,36.0,29.86,WSW,251,6.0,27.0,59,0.00,,,1.13,,2013-01-30 22:32:00,
2013-01-30 16:42:00,50.0,36.0,29.86,WSW,251,6.0,27.0,59,0.00,,,1.13,,2013-01-30 22:42:00,
2013-01-30 16:53:00,49.0,36.0,29.87,WNW,303,9.0,27.0,60,0.00,,,1.13,,2013-01-30 22:53:00,
2013-01-30 17:02:00,48.0,34.0,29.88,NNW,338,5.0,27.0,58,0.00,,,1.13,,2013-01-30 23:02:00,
2013-01-30 17:12:00,48.0,34.0,29.88,NNW,338,5.0,27.0,58,0.00,,,1.13,,2013-01-30 23:12:00,
2013-01-30 17:22:00,48.0,33.0,29.89,North,3,6.0,27.0,56,0.00,,,1.13,,2013-01-30 23:22:00,
2013-01-30 17:32:00,48.0,33.0,29.90,West,267,5.0,27.0,56,0.00,,,1.13,,2013-01-30 23:32:00,
2013-01-30 17:42:00,48.0,33.0,29.90,West,267,5.0,27.0,56,0.00,,,1.13,,2013-01-30 23:42:00,
2013-01-30 17:52:00,47.0,32.0,29.92,WSW,250,9.0,27.0,56,0.00,,,1.13,,2013-01-30 23:52:00,
2013-01-30 18:02:00,47.0,33.0,29.93,NW,309,6.0,27.0,57,0.00,,,1.13,,2013-01-31 00:02:00,
2013-01-30 18:11:00,47.0,33.0,29.93,NW,309,6.0,27.0,57,0.00,,,1.13,,2013-01-31 00:11:00,
2013-01-30 18:21:00,46.0,31.0,29.95,NNW,336,7.0,27.0,55,0.00,,,1.13,,2013-01-31 00:21:00,
2013-01-30 18:32:00,46.0,30.0,29.96,WNW,297,5.0,27.0,54,0.00,,,1.13,,2013-01-31 00:32:00,
2013-01-30 18:42:00,46.0,30.0,29.96,WNW,297,5.0,27.0,54,0.00,,,1.13,,2013-01-31 00:42:00,
2013-01-30 18:53:00,46.0,31.0,29.97,NW,310,5.0,27.0,56,0.00,,,1.13,,2013-01-31 00:53:00,
2013-01-30 19:02:00,45.0,31.0,29.98,West,263,1.0,27.0,57,0.00,,,1.13,,2013-01-31 01:02:00,
2013-01-30 19:11:00,45.0,31.0,29.98,West,263,1.0,27.0,57,0.00,,,1.13,,2013-01-31 01:11:00,
2013-01-30 19:21:00,45.0,30.0,29.99,WNW,283,3.0,27.0,56,0.00,,,1.13,,2013-01-31 01:21:00,
2013-01-30 19:31:00,45.0,30.0,29.99,WNW,284,7.0,27.0,55,0.00,,,1.13,,2013-01-31 01:31:00,
2013-01-30 19:41:00,45.0,30.0,29.99,WNW,284,7.0,27.0,55,0.00,,,1.13,,2013-01-31 01:41:00,
2013-01-30 19:52:00,45.0,31.0,30.01,WSW,238,2.0,27.0,57,0.00,,,1.13,,2013-01-31 01:52:00,
2013-01-30 20:01:00,44.0,30.0,30.01,West,268,2.0,27.0,57,0.00,,,1.13,,2013-01-31 02:01:00,
2013-01-30 20:11:00,44.0,30.0,30.01,West,268,2.0,27.0,57,0.00,,,1.13,,2013-01-31 02:11:00,
2013-01-30 20:21:00,44.0,30.0,30.03,WSW,249,7.0,27.0,58,0.00,,,1.13,,2013-01-31 02:21:00,
2013-01-30 20:32:00,44.0,30.0,30.04,WNW,299,3.0,27.0,58,0.00,,,1.13,,2013-01-31 02:32:00,
2013-01-30 20:41:00,44.0,30.0,30.04,WNW,299,3.0,27.0,58,0.00,,,1.13,,2013-01-31 02:41:00,
2013-01-30 20:52:00,44.0,30.0,30.04,WNW,299,3.0,27.0,58,0.00,,,1.13,,2013-01-31 02:52:00,
2013-01-30 21:02:00,44.0,30.0,30.04,NW,326,2.0,27.0,57,0.00,,,1.13,,2013-01-31 03:02:00,
2013-01-30 21:11:00,44.0,30.0,30.04,NW,326,2.0,27.0,57,0.00,,,1.13,,2013-01-31 03:11:00,
2013-01-30 21:21:00,43.0,29.0,30.05,WNW,299,3.0,27.0,58,0.00,,,1.13,,2013-01-31 03:21:00,
2013-01-30 21:32:00,43.0,30.0,30.06,NW,309,2.0,27.0,59,0.00,,,1.13,,2013-01-31 03:32:00,
2013-01-30 21:41:00,43.0,30.0,30.06,NW,309,2.0,27.0,59,0.00,,,1.13,,2013-01-31 03:41:00,
2013-01-30 21:52:00,43.0,30.0,30.06,NNW,327,2.0,27.0,59,0.00,,,1.13,,2013-01-31 03:52:00,
2013-01-30 22:02:00,43.0,30.0,30.06,NW,324,2.0,27.0,59,0.00,,,1.13,,2013-01-31 04:02:00,
2013-01-30 22:11:00,43.0,30.0,30.06,NW,324,2.0,27.0,59,0.00,,,1.13,,2013-01-31 04:11:00,
2013-01-30 22:22:00,42.0,29.0,30.08,NW,318,1.0,27.0,60,0.00,,,1.13,,2013-01-31 04:22:00,
2013-01-30 22:31:00,42.0,30.0,30.08,WNW,303,0.0,27.0,61,0.00,,,1.13,,2013-01-31 04:31:00,
2013-01-30 22:41:00,42.0,30.0,30.08,WNW,303,0.0,27.0,61,0.00,,,1.13,,2013-01-31 04:41:00,
2013-01-30 22:52:00,42.0,30.0,30.08,NNW,327,1.0,27.0,62,0.00,,,1.13,,2013-01-31 04:52:00,
2013-01-30 23:03:00,41.0,29.0,30.09,West,276,1.0,27.0,63,0.00,,,1.13,,2013-01-31 05:03:00,
2013-01-30 23:11:00,41.0,29.0,30.09,West,276,1.0,27.0,63,0.00,,,1.13,,2013-01-31 05:11:00,
2013-01-30 23:22:00,41.0,30.0,30.09,NW,316,1.0,27.0,64,0.00,,,1.13,,2013-01-31 05:22:00,
2013-01-30 23:31:00,41.0,30.0,30.09,NW,316,1.0,27.0,64,0.00,,,1.13,,2013-01-31 05:31:00,
2013-01-30 23:41:00,41.0,30.0,30.10,NW,306,0.0,27.0,64,0.00,,,1.13,,2013-01-31 05:41:00,
2013-01-30 23:52:00,41.0,30.0,30.10,NW,306,0.0,27.0,64,0.00,,,1.13,,2013-01-31 05:52:00,